Home > Weather > Hinckley > Past weeks

Flag for United Kingdom Past Weather in Hinckley, England, United Kingdom — Yesterday and Last 2 Weeks

Now
71 °F

Mild.


Feels Like: 75 °F
Forecast: 59 / 69 °F
Wind: 9 mph from East

Location: Church Lawford

Current Time: Aug 27, 2016 at 2:41:49 PM

Latest Report: Aug 27, 2016 at 2:00 PM


Visibility: 31 mi

Pressure: 29.98 "Hg

Humidity: 63%

Dew Point: 58 °F

Location of HinckleyLocation

Past Weather in Hinckley — Graph

°F

Hinckley Temperature Yesterday

Maximum temperature yesterday: 73 °F (at 4:00 PM)
Minimum temperature yesterday: 55 °F (at 11:00 PM)
Average temperature yesterday: 64 °F

High & Low Weather Summary for the Past Weeks

 TemperatureHumidityPressure
High83 °F (Aug 23, 4:00 PM)100% (Aug 17, 7:00 AM)30.32 "Hg (Aug 17, 7:00 AM)
Low47 °F (Aug 15, 6:00 AM)39% (Aug 17, 5:00 PM)29.58 "Hg (Aug 20, 7:00 AM)
Average64 °F77%30.03 "Hg
* Reported Aug 12 1:00 PM — Aug 27 1:00 PM, Hinckley, Weather by CustomWeather, © 2016

Note: Actual official high and low records may vary slightly from our data, if they occured in-between our weather recording intervals... More about our weather records

Advertising

Hinckley Weather History for the Previous 24 Hours

Scroll right to see more
 ConditionsComfort  
Time TempWeatherWind HumidityBarometerVisibility
1:00 PM
Sat, Aug 27
71 °FMild.9 mph65%30.01 "Hg18 mi
12:00 PM69 °FMild.7 mph68%30.04 "Hg22 mi
11:00 AM66 °FMild.8 mph70%30.06 "Hg19 mi
10:00 AM62 °FCool.5 mph87%30.09 "Hg10 mi
9:00 AM60 °FCool.3 mph87%30.10 "Hg13 mi
8:00 AM54 °FCool.3 mph91%30.10 "Hg25 mi
7:00 AM51 °FCool.3 mph97%30.11 "Hg25 mi
6:00 AM50 °FCool.3 mph99%30.11 "Hg19 mi
3:00 AM49 °FCool.1 mph97%30.14 "Hg10 mi
2:00 AM50 °FFog.No wind97%30.14 "Hg9 mi
1:00 AM51 °FCool.No wind95%30.14 "Hg9 mi
12:00 AM54 °FCool.2 mph91%30.14 "Hg15 mi
11:00 PM
Fri, Aug 26
55 °FCool.No wind90%30.14 "Hg22 mi
10:00 PM55 °FCool.1 mph87%30.13 "Hg19 mi
9:00 PM59 °FCool.No wind79%30.12 "Hg28 mi
8:00 PM64 °FMild.2 mph65%30.10 "Hg28 mi
7:00 PM70 °FMild.7 mph50%30.08 "Hg31 mi
6:00 PM71 °FMild.7 mph48%30.08 "Hg31 mi
5:00 PM72 °FMild.8 mph47%30.08 "Hg28 mi
4:00 PM73 °FMild.10 mph48%30.08 "Hg22 mi
3:00 PM71 °FMild.9 mph47%30.08 "Hg28 mi
2:00 PM70 °FMild.9 mph53%30.08 "Hg28 mi
Weather by CustomWeather, © 2016

See weather overviewHow to use our weather pages